Wind_Gust
15 20 16 18 18 20 21 19 21 25 26 27 27 26 33 24 18 21 17 18 18 20 14 10 8 11 17 21 26 25 25 21 22 20 15 22 14 18 27 30 29 25 25 26 25 26 26 21 19 19 20 20 20 20 20 21 21 21 20 20 19 18 18 18 17 16 16 14 15 14 15 14 14 14 13 15 16 16 17 17 18 19 20 20 20 20 19 19 19 19 19 18 17 17 17 16 16
20 17 16 14 19 20 21 19 30 26 28 29 29 26 34 26 14 23 24 15 21 18 12 14 10 11 10 12 31 29 29 27 24 28 23 20 19 16 19 24 27 27 25 25 25 25 25 25 18 19 19 21 20 21 22 22 21 21 21 20 19 18 18 18 17 16 15 15 16 16 16 15 15 14 14 16 17 17 16 17 18 19 19 19 19 19 19 19 18 18 17 17 16 16 16 15 15
20 18 17 18 20 23 23 23 28 25 28 29 26 30 23 17 18 11 11 17 15 12 10 8 10 12 14 12 15 25 24 21 25 22 24 19 20 18 21 23 23 26 24 24 26 25 25 24 17 19 19 20 20 21 21 21 21 21 20 20 19 19 18 17 17 16 14 14 16 17 16 15 14 12 12 16 17 17 15 15 17 18 17 17 17 18 18 17 16 15 15 14 14 15 15 15 14
20 19 21 16 23 22 22 25 26 29 32 30 32 29 30 21 24 18 18 14 10 11 12 17 20 15 19 15 28 25 24 25 21 19 27 21 20 22 23 23 23 25 22 25 25 26 24 23 18 19 19 19 20 22 21 21 21 21 21 20 20 19 19 18 18 17 16 15 15 15 16 16 13 11 12 16 17 16 16 15 17 18 17 16 16 16 16 14 14 14 12 13 13 15 14 14 13
19 19 18 20 22 25 25 27 27 28 31 28 30 30 24 15 17 19 13 12 11 13 14 10 14 14 24 21 20 24 24 22 19 16 24 20 21 22 23 24 24 23 22 24 24 25 25 24 19 19 19 20 21 21 21 20 21 21 20 20 20 19 18 18 18 17 17 15 14 14 14 14 12 12 14 14 14 13 16 16 16 16 16 14 13 12 12 11 12 12 11 11 13 14 14 13 12
20 20 17 19 25 23 25 27 28 30 29 29 28 28 22 16 12 12 13 12 9 12 11 15 18 26 24 24 24 25 15 18 18 17 21 20 24 22 21 21 23 21 22 23 24 24 26 23 21 20 20 21 21 21 21 21 21 21 21 21 20 19 18 18 18 18 17 16 14 14 14 13 12 13 13 15 16 17 18 17 16 15 16 15 15 14 13 12 11 11 11 12 14 15 15 14 12
22 19 21 21 28 26 26 28 30 30 29 27 34 34 39 19 12 11 11 12 12 15 13 16 12 27 22 27 30 25 20 15 20 23 18 23 22 21 20 23 22 21 23 23 23 24 28 20 19 19 20 22 21 22 21 21 22 21 21 21 20 19 19 18 17 17 17 16 14 14 13 13 13 14 14 16 16 17 17 16 16 15 15 14 13 13 12 11 11 12 13 14 15 15 14 13 12
18 23 20 24 24 27 29 29 32 30 28 30 29 28 20 17 10 12 13 14 22 22 21 14 13 22 20 19 26 17 20 23 25 24 28 22 20 20 19 22 22 22 23 21 21 24 24 18 19 19 20 20 22 22 22 22 22 21 21 21 20 20 20 19 18 16 16 17 16 14 13 13 14 14 15 16 16 16 17 16 15 15 13 13 12 12 11 11 12 13 14 14 14 14 13 13 11
20 24 19 25 25 29 27 28 29 29 33 33 32 30 18 13 13 12 14 16 15 16 23 17 13 22 28 27 26 18 26 25 26 24 23 22 20 19 20 21 24 24 23 23 25 27 24 18 18 19 21 21 22 22 23 24 22 21 22 21 21 20 19 18 19 17 17 14 15 15 16 14 14 14 15 15 16 16 16 15 14 14 13 12 12 10 10 11 12 13 13 13 14 13 13 12 11
23 22 22 27 22 29 28 29 29 27 31 30 33 31 27 23 20 18 18 19 16 15 17 17 16 17 30 25 26 18 22 21 21 20 21 20 20 18 18 19 22 24 21 24 26 26 23 22 17 19 19 22 22 21 21 21 22 22 21 21 18 19 19 18 17 18 17 16 14 14 15 14 15 14 15 15 16 16 15 14 13 12 12 11 11 9 10 11 12 12 12 13 13 13 13 12 11
27 25 22 26 26 27 29 26 27 26 27 29 28 24 14 13 15 17 17 21 19 18 17 14 20 21 25 25 24 16 19 20 19 20 19 19 19 19 20 19 21 21 25 22 24 25 26 24 23 20 20 20 19 19 19 20 19 19 19 18 18 19 19 17 18 18 16 17 16 15 15 14 15 14 14 14 15 14 13 12 12 12 11 10 9 9 9 10 11 11 12 11 12 12 12 12 11
25 24 24 27 27 26 25 27 26 27 27 23 27 17 19 20 18 19 17 21 18 18 20 19 25 20 26 24 19 19 18 19 17 19 18 19 20 19 19 20 20 22 23 24 26 25 26 25 25 23 19 19 18 19 19 19 18 18 19 19 17 17 15 16 16 16 17 16 16 15 15 14 14 14 13 13 12 12 12 12 12 11 10 10 8 8 9 9 10 11 11 11 12 12 12 11 10
27 22 24 26 26 26 26 26 24 25 24 18 22 26 15 14 17 16 18 20 18 20 22 24 16 21 22 22 23 18 19 17 17 19 18 19 20 20 18 19 21 22 23 24 26 27 26 25 26 25 22 20 16 17 17 18 16 17 17 18 18 16 16 15 14 13 14 16 15 15 15 14 13 13 13 12 13 12 12 12 11 11 10 10 9 7 8 9 9 11 12 12 11 12 11 11 10
26 24 24 27 22 27 28 25 25 24 24 29 21 22 19 17 19 19 21 20 21 22 21 22 20 31 28 26 19 19 19 19 21 18 19 18 19 19 18 20 21 23 23 23 25 27 26 25 25 24 25 23 23 19 15 16 16 16 16 16 16 15 15 14 13 12 14 16 15 15 15 14 14 13 13 12 12 11 9 10 10 11 11 9 9 7 7 8 9 10 11 12 12 11 12 11 10
25 21 26 26 26 23 25 30 22 21 28 23 27 18 17 19 17 18 21 19 20 22 25 20 31 24 24 21 22 22 25 21 20 18 17 18 18 18 20 22 22 21 22 22 24 26 26 25 27 25 24 24 25 23 23 21 17 16 16 15 15 15 14 15 14 12 16 16 16 15 15 16 15 15 14 12 11 11 11 11 9 8 10 10 9 7 7 7 8 9 11 11 12 11 11 11 10
23 23 26 26 26 25 24 24 24 23 23 16 19 15 17 18 18 19 25 24 23 21 17 24 18 24 22 23 24 29 28 24 21 18 19 19 19 19 21 21 23 21 23 22 24 25 26 26 25 26 26 24 23 21 21 23 18 16 17 16 16 15 15 15 14 14 15 16 16 15 13 18 16 19 16 17 13 11 12 13 10 9 10 11 9 7 6 7 8 10 10 11 12 12 11 10 9
20 22 24 25 27 24 22 26 21 29 22 17 19 16 25 23 18 22 21 22 23 21 16 17 25 32 32 22 34 35 29 24 21 21 19 19 20 21 20 21 22 22 21 23 24 26 26 26 26 25 25 24 23 22 22 23 23 20 17 17 15 15 15 16 15 15 14 14 15 12 11 18 18 20 20 18 15 17 11 9 13 11 11 10 9 7 7 8 9 9 10 11 12 13 11 11 9
20 26 24 25 24 25 21 27 21 17 20 17 11 12 17 19 22 23 20 22 17 20 20 25 30 29 26 27 28 32 29 26 23 22 22 20 20 21 21 21 23 22 23 23 23 25 26 26 26 26 26 25 24 24 23 23 24 22 22 22 22 20 16 16 20 21 18 20 14 17 18 18 19 19 18 16 18 17 16 13 13 13 11 11 8 8 8 8 10 10 11 11 12 13 14 16 13
24 23 26 26 23 24 24 22 19 17 19 14 17 15 16 20 24 24 25 24 21 24 21 18 23 23 27 25 27 28 27 23 23 21 21 20 21 20 20 20 21 22 23 23 23 24 24 25 25 26 25 25 24 21 23 23 24 24 24 25 23 20 21 23 23 23 21 21 21 22 19 17 18 17 18 18 17 15 19 14 14 14 13 12 10 8 8 9 11 11 12 12 11 13 20 15 16
24 24 26 28 23 25 24 25 15 14 17 10 14 14 20 14 21 27 25 25 21 25 27 23 21 22 25 26 25 26 25 24 22 22 22 20 19 20 18 19 21 21 22 23 22 23 25 24 23 24 24 25 24 23 22 23 23 24 24 25 25 24 25 24 23 23 22 21 21 19 15 12 11 11 14 17 17 20 21 15 15 15 15 13 11 9 9 8 10 12 12 11 10 14 18 16 17
23 29 27 23 23 28 23 16 13 13 12 13 12 11 18 18 16 20 20 25 25 25 24 25 25 24 26 25 26 24 25 24 23 20 20 20 19 18 18 18 20 23 22 23 21 22 25 23 22 22 22 24 22 23 21 23 22 22 24 23 23 23 24 24 22 21 17 15 16 14 10 9 10 18 17 18 20 20 19 20 20 20 19 18 14 16 15 15 13 16 18 17 18 19 19 14 14
21 26 24 25 22 25 22 15 19 22 10 15 10 19 20 19 18 21 20 22 24 26 25 29 32 31 27 25 25 24 23 22 22 20 19 17 17 16 15 16 16 18 19 21 22 22 26 24 24 21 22 22 20 21 22 20 21 22 20 21 21 20 20 19 17 15 15 15 9 7 9 10 12 15 14 16 16 17 20 20 20 20 20 19 21 18 17 14 15 17 17 20 19 17 19 12 11
29 21 23 28 30 26 19 16 16 12 16 20 17 15 16 18 20 23 20 20 32 38 36 35 32 31 29 24 23 22 23 21 19 19 18 17 16 17 15 16 18 20 20 23 25 24 25 24 16 20 19 20 18 19 18 17 18 20 17 18 19 19 17 17 15 15 13 12 11 11 9 11 14 14 14 15 16 17 17 17 19 19 19 20 22 18 18 17 18 16 16 17 18 18 15 14 17
25 27 21 25 25 24 19 15 13 18 21 19 21 14 19 16 22 22 25 14 27 33 30 28 29 29 27 25 21 21 21 22 19 17 17 16 16 15 15 17 16 23 21 24 29 28 23 22 19 18 19 15 17 17 15 19 21 21 17 16 18 19 17 18 13 16 11 9 12 10 10 11 12 16 17 17 16 17 17 16 17 17 18 20 20 18 20 18 19 16 17 18 19 17 22 19 14
27 32 22 20 24 23 22 17 15 17 20 21 16 15 19 19 24 23 25 16 27 30 29 24 26 27 23 22 21 21 20 19 19 17 15 17 16 14 14 20 29 27 26 26 24 27 22 19 16 16 15 18 18 18 18 19 20 17 17 16 14 14 14 15 17 11 11 12 12 11 10 13 18 15 11 15 16 13 16 14 16 18 16 19 20 18 19 19 18 17 18 18 15 18 24 20 16
28 24 24 23 22 19 23 22 18 18 19 19 21 19 19 23 20 25 27 15 18 30 26 24 24 24 24 20 21 19 18 18 18 18 17 17 16 16 17 29 31 29 27 30 25 24 22 17 18 16 14 17 16 15 17 15 17 13 13 15 14 15 14 19 14 16 13 13 13 13 16 22 19 16 15 13 18 13 16 19 15 19 17 17 18 17 17 19 18 15 14 15 17 15 17 20 18
22 27 25 25 24 19 18 22 22 20 21 19 23 22 21 21 21 25 25 19 19 21 29 31 23 22 25 23 22 19 19 18 18 17 17 15 16 17 25 25 31 29 28 29 24 27 23 17 20 20 21 19 19 21 14 15 19 20 22 21 19 19 21 14 15 14 15 15 13 16 18 18 16 18 17 12 15 17 14 17 15 16 17 16 18 20 15 15 14 12 13 16 14 16 15 14 19
27 15 20 26 26 23 19 21 22 25 28 21 21 23 20 20 25 25 22 19 20 23 26 28 28 25 25 22 21 19 19 18 18 17 18 16 20 24 24 27 26 20 27 26 27 24 22 16 14 15 19 20 14 14 16 18 19 17 15 13 14 15 13 15 16 15 12 11 12 12 13 16 13 18 13 17 13 13 12 13 14 16 16 18 20 23 17 16 14 13 13 14 13 14 16 16 18
24 18 22 21 25 33 23 24 24 23 27 24 21 22 24 25 27 29 23 22 22 23 27 31 28 27 26 22 24 20 20 19 17 18 17 21 27 26 31 31 27 24 24 27 22 22 18 16 13 12 14 16 15 15 14 14 12 11 11 12 12 15 16 13 13 12 10 13 14 13 14 11 12 12 9 10 11 11 11 10 14 13 13 14 16 18 25 22 18 15 15 15 16 16 15 15 17
21 22 22 22 27 31 26 24 23 24 25 26 27 30 25 26 26 31 24 24 22 25 25 30 31 31 30 22 20 19 18 17 16 15 19 24 29 28 30 28 26 25 20 13 14 14 14 14 12 12 11 11 12 11 13 11 10 10 9 9 10 11 12 13 12 11 10 8 9 14 11 11 12 11 11 10 9 9 10 10 14 14 20 19 12 14 19 22 18 16 16 17 15 17 17 16 15
31 24 24 28 28 32 29 33 26 28 25 24 27 29 27 27 29 31 23 22 23 25 26 30 31 31 27 24 22 22 18 16 15 21 25 26 25 27 28 23 24 16 15 14 14 16 13 12 12 12 12 11 11 12 13 11 10 9 9 10 9 12 10 11 13 13 11 12 14 13 13 12 11 11 10 9 9 9 9 7 10 16 14 13 11 15 15 15 16 17 19 19 17 18 17 16 17
28 30 32 28 30 24 30 31 32 35 31 26 26 32 26 32 32 29 22 22 22 22 25 31 30 29 24 25 20 18 16 15 18 25 24 25 26 26 25 20 18 14 13 15 15 15 14 14 12 10 14 12 11 12 11 10 9 9 8 8 9 8 10 13 13 13 12 12 12 12 13 12 12 12 13 12 10 10 11 9 8 14 16 16 10 15 14 16 17 18 17 17 18 20 18 18 18
30 31 23 30 28 27 31 34 32 33 32 27 28 32 31 31 33 28 24 23 23 23 24 30 29 26 25 20 20 17 18 22 22 24 26 26 27 22 18 15 14 15 15 13 13 13 13 13 13 12 17 15 13 12 13 11 11 10 10 10 11 15 13 14 13 11 11 12 11 12 13 13 13 13 13 13 13 12 10 9 10 12 11 9 9 10 11 10 16 17 16 16 16 19 21 19 18
31 30 30 24 28 32 31 32 33 33 31 30 32 42 31 26 33 29 26 25 24 24 23 26 31 26 25 24 23 19 18 24 22 22 25 25 23 21 16 12 12 12 12 14 16 17 17 16 16 14 10 11 11 12 11 11 11 10 14 16 13 14 12 13 12 12 13 13 10 10 11 13 13 14 13 12 12 11 11 11 9 10 9 10 8 9 11 16 16 16 18 17 21 18 18 18 19
27 28 28 28 28 33 30 38 34 35 33 28 33 40 33 32 32 28 25 24 23 22 23 33 31 26 24 26 25 21 25 26 20 21 22 23 21 18 18 13 12 13 15 15 13 9 11 12 12 10 10 9 9 10 11 10 10 10 11 12 12 13 12 14 13 11 11 9 11 10 10 9 12 14 14 14 13 13 12 11 12 12 11 10 9 8 10 17 14 13 15 14 18 19 17 14 17
26 25 27 27 28 32 37 32 31 36 34 31 33 37 36 35 31 27 25 24 22 22 18 29 27 27 23 20 22 23 27 25 22 19 19 20 21 18 13 13 15 13 13 12 11 9 11 11 10 10 9 9 8 9 10 11 10 10 11 11 12 11 11 9 8 10 10 11 10 10 11 12 15 15 16 16 14 13 12 12 12 11 12 11 12 11 13 13 12 12 15 15 19 18 19 16 16
24 24 26 31 29 28 29 31 31 36 34 31 32 34 31 28 25 24 23 22 20 22 21 29 28 29 29 28 28 30 25 24 20 18 20 21 20 18 14 12 13 13 12 11 10 10 10 11 11 11 9 9 8 10 9 10 10 10 9 10 11 9 10 8 10 11 9 10 11 14 13 15 15 16 15 17 16 14 15 13 13 14 15 15 14 14 14 14 11 9 11 14 13 17 18 18 18
30 25 27 31 30 28 29 29 34 36 31 29 29 36 31 27 23 24 23 28 25 21 19 24 26 24 28 27 29 27 24 24 20 16 19 19 20 16 14 12 11 14 13 12 13 12 12 11 13 12 9 7 7 9 8 8 6 8 9 9 10 10 8 11 12 12 10 10 12 12 13 13 14 13 13 14 15 17 16 15 14 15 17 16 14 15 15 13 13 11 11 11 14 22 20 18 14
31 31 28 30 30 29 27 28 35 34 32 29 30 35 30 28 24 22 21 26 25 20 14 19 24 27 29 30 31 28 23 22 21 16 17 20 18 13 14 13 14 14 14 14 13 13 12 13 12 11 9 8 8 8 7 7 7 6 8 8 9 11 8 9 8 9 9 12 11 12 12 13 13 14 15 17 16 17 16 18 18 16 19 17 17 17 15 15 12 15 14 15 19 20 21 18 12
29 28 31 32 26 30 32 28 26 30 35 29 32 34 30 23 20 19 21 28 25 18 17 17 19 28 29 27 28 27 25 23 21 18 19 17 15 14 14 14 15 15 15 14 13 12 13 13 10 9 11 12 12 9 8 8 8 6 6 7 6 9 10 9 9 9 9 11 13 12 13 13 15 16 18 19 18 16 17 17 15 16 18 17 18 17 17 16 16 17 18 19 19 20 22 20 19
29 29 28 31 28 34 31 29 28 26 30 28 32 34 35 26 26 23 21 21 20 19 18 18 29 33 30 28 24 23 24 23 22 19 18 18 18 17 17 15 18 19 18 17 13 13 12 12 11 12 12 12 9 9 8 7 8 8 7 7 8 9 10 11 10 11 11 11 10 14 16 16 19 20 19 18 17 18 17 18 18 16 16 16 16 19 19 17 17 16 19 18 21 18 20 18 15
30 27 27 24 26 30 31 28 28 31 34 37 31 40 41 30 27 27 24 23 24 22 20 20 25 28 24 22 22 23 21 20 21 18 19 19 20 19 18 15 15 15 15 14 12 11 13 14 14 12 10 9 10 9 8 8 8 6 7 8 8 9 10 9 9 9 10 11 14 15 17 16 17 18 18 17 18 17 18 19 17 15 17 19 21 20 17 16 17 16 19 19 19 18 14 13 10
28 33 29 29 28 32 31 31 29 31 37 34 34 38 34 33 31 31 27 24 24 22 21 21 27 26 23 22 23 24 24 21 19 19 18 19 19 15 15 16 16 14 14 13 12 12 12 11 9 10 10 8 7 7 6 5 5 6 5 9 10 10 12 8 9 7 8 11 10 10 12 12 15 17 16 17 16 18 17 16 17 17 18 21 20 17 16 20 22 22 19 20 17 16 11 11 12
33 22 30 29 30 33 32 32 29 26 25 27 31 37 33 38 33 30 28 26 25 23 21 20 28 26 22 20 22 22 24 22 21 19 18 17 18 17 17 16 15 15 13 12 12 12 11 11 9 9 8 7 8 7 5 6 7 5 7 8 9 11 11 11 8 8 8 10 17 13 13 14 17 18 18 18 18 18 19 19 19 18 17 18 19 22 21 22 20 21 20 20 15 15 14 13 16
29 22 28 32 30 32 31 32 30 27 27 32 37 33 37 33 32 28 29 30 27 26 23 22 24 25 22 21 22 22 21 21 20 18 17 17 17 16 16 17 16 14 14 14 12 11 10 10 10 9 8 7 7 7 6 6 6 8 10 9 9 11 10 10 10 11 12 11 13 14 13 14 17 18 19 18 18 18 19 17 17 19 18 16 15 21 22 21 22 21 20 19 17 15 17 16 18
31 27 26 29 29 32 31 31 31 31 31 30 34 36 39 28 29 31 29 30 31 30 26 24 23 25 25 23 21 22 22 21 21 20 19 18 18 16 16 17 18 17 16 14 13 12 10 10 9 9 8 8 8 6 6 6 7 8 10 9 10 12 12 12 11 12 13 13 13 13 16 17 16 18 19 19 18 19 19 19 19 19 18 19 18 19 18 22 21 20 21 19 16 15 15 15 15
27 31 29 29 28 29 31 30 31 29 34 33 28 33 33 31 31 30 34 37 31 30 28 24 23 24 24 23 21 21 19 19 19 19 18 18 17 17 16 18 18 16 15 16 15 15 13 14 12 12 11 11 9 9 9 8 8 9 11 10 12 13 13 12 14 14 16 15 15 16 19 19 19 19 19 20 20 20 20 20 20 19 18 17 19 20 19 18 18 20 19 20 17 18 17 15 14
33 34 31 30 29 26 29 29 29 35 34 31 31 32 34 35 25 28 27 27 30 33 30 28 24 23 24 19 20 20 18 18 19 18 17 16 17 17 16 16 15 15 15 15 14 14 13 14 13 12 12 12 12 13 13 12 12 11 11 12 14 14 14 16 17 16 14 18 17 16 16 17 17 19 20 20 20 20 20 20 19 18 19 18 21 20 20 20 21 19 19 21 20 20 14 14 15
37 31 33 34 36 34 37 34 39 38 33 31 31 30 33 37 24 36 31 29 31 29 31 30 25 22 20 19 19 20 17 16 17 17 16 16 16 16 15 15 14 15 15 14 14 12 11 11 11 11 11 11 12 11 12 13 13 13 14 13 13 15 15 15 16 16 16 13 17 15 16 19 19 20 22 22 20 20 21 20 20 20 19 17 18 20 20 21 20 19 20 20 20 19 18 16 17
38 36 37 38 40 37 30 36 32 32 32 27 34 30 29 24 27 25 28 31 33 30 27 25 24 22 20 19 19 18 17 17 16 16 16 15 15 15 14 13 14 14 14 15 14 13 13 11 13 12 12 12 12 12 14 13 12 13 14 14 14 16 16 15 15 17 17 16 12 13 15 16 21 19 20 21 20 23 23 20 19 20 20 19 19 19 20 20 21 22 19 20 19 17 18 20 20
41 30 37 33 34 40 30 35 37 31 26 29 28 40 32 23 21 23 29 30 31 29 28 24 23 22 20 19 19 18 16 16 16 16 15 14 14 13 14 14 14 14 14 14 14 14 14 14 14 14 14 14 14 14 14 14 15 15 14 14 16 16 18 18 18 17 16 17 16 15 14 15 18 20 20 19 21 20 20 20 20 20 20 19 20 20 20 21 20 20 20 21 19 18 21 21 20
37 34 29 35 37 27 32 24 26 29 29 31 30 22 19 24 26 23 25 27 27 27 27 25 23 21 20 19 17 17 17 16 15 15 16 15 14 14 14 13 14 14 14 14 14 13 14 14 14 15 15 15 15 14 15 15 16 16 15 15 16 16 17 18 19 18 19 17 18 18 17 16 16 19 14 14 17 18 19 19 20 21 20 20 19 19 20 21 20 20 20 21 21 20 20 24 19
39 37 42 36 28 28 22 19 23 11 24 33 22 20 25 27 20 21 25 25 26 25 25 23 22 20 18 18 17 16 16 16 14 14 15 14 14 13 13 13 13 13 13 13 14 14 14 15 15 15 15 15 16 15 15 15 16 15 15 15 16 16 17 17 19 18 19 19 19 19 18 20 18 19 17 15 14 15 18 19 21 22 20 21 19 20 21 22 20 20 21 19 20 19 19 23 22
36 44 36 27 28 25 26 26 23 22 30 28 31 27 27 27 21 23 24 26 26 25 24 22 21 18 18 17 16 16 16 16 15 15 14 14 14 13 14 13 14 15 14 14 14 13 14 14 14 15 15 16 16 16 16 15 15 15 15 15 16 17 18 18 19 19 20 21 20 19 18 20 19 18 18 18 16 17 17 20 22 21 21 17 17 21 23 22 21 21 22 21 19 19 20 19 19
33 34 23 39 32 26 28 27 30 32 33 30 35 28 28 31 25 30 27 29 28 25 24 22 20 19 19 18 17 16 15 15 14 13 14 14 14 14 14 13 13 13 12 13 13 13 14 13 13 14 15 15 16 16 17 16 16 16 16 17 18 19 20 20 19 20 20 21 22 21 19 19 19 20 21 20 19 21 20 25 24 26 26 24 21 19 19 22 21 21 20 20 19 18 19 19 19
35 28 36 30 27 25 24 30 19 29 25 25 27 28 27 34 33 35 33 32 32 29 25 21 21 20 20 19 18 16 15 14 14 13 14 14 14 13 12 12 13 13 13 13 13 13 14 14 14 16 16 17 18 18 17 17 17 17 18 18 17 20 21 20 20 20 22 22 22 21 20 19 18 18 20 19 19 19 19 23 25 24 19 21 20 22 20 20 21 20 20 21 18 18 19 19 19
41 41 40 38 38 24 27 25 29 28 29 28 25 27 27 20 33 37 35 34 32 30 27 24 23 21 19 17 17 16 15 14 14 14 13 13 12 12 12 12 12 12 12 12 13 13 13 14 14 15 17 17 18 18 18 18 18 18 18 18 19 19 20 21 21 21 22 22 21 20 20 19 19 19 17 18 20 21 22 23 28 25 23 23 23 24 20 20 22 22 23 21 20 21 21 20 17
35 36 38 36 35 35 34 29 29 32 33 32 26 26 18 15 20 30 35 34 33 29 27 26 23 22 20 17 16 16 16 14 13 12 12 12 12 12 12 13 13 14 14 14 14 12 14 16 17 17 18 19 19 20 19 19 18 19 18 19 20 19 20 20 22 22 22 23 22 21 19 19 20 20 20 20 20 17 16 23 27 27 28 27 22 22 19 19 21 23 21 20 22 21 19 18 17
Wind_Speed
9 8 8 8 8 8 8 5 5 4 6 9 9 9 10 14 7 11 8 9 6 10 6 1 4 5 5 8 16 15 14 11 9 5 4 4 6 8 19 19 18 16 16 13 13 12 13 15 15 15 15 16 15 15 15 17 17 17 17 16 15 15 14 13 13 13 13 12 12 12 11 11 11 11 11 12 12 12 12 13 14 15 15 15 15 14 14 14 14 13 13 13 13 13 12 12 12
8 9 9 7 6 6 5 6 6 8 9 11 11 12 13 15 3 13 15 5 11 7 5 5 3 5 3 9 19 17 15 15 14 11 10 9 9 7 13 15 18 17 13 13 12 11 12 14 15 14 15 16 16 16 16 17 17 17 17 16 15 15 14 13 13 13 12 12 13 13 13 12 11 11 12 13 13 12 11 12 14 15 15 15 15 14 14 13 13 12 12 12 12 12 12 11 11
9 9 7 7 7 7 8 7 9 8 10 11 10 12 12 6 9 3 3 10 8 6 5 3 4 3 7 6 6 15 7 12 15 11 9 11 10 5 14 12 15 17 14 11 12 12 10 14 14 15 15 16 16 16 16 17 17 17 17 16 15 15 14 13 13 13 11 11 14 14 13 12 11 9 10 13 13 13 11 11 13 14 14 14 14 14 13 12 11 11 11 10 11 11 11 11 10
9 9 8 5 7 7 6 5 9 10 11 10 11 15 15 10 14 8 11 8 4 3 2 4 6 2 11 8 15 16 13 10 12 11 8 8 8 10 12 15 15 14 12 10 11 12 11 13 15 15 15 16 16 16 17 17 17 17 17 16 16 15 14 14 13 13 12 12 12 13 13 12 10 9 10 14 14 13 12 11 12 13 13 13 13 12 11 10 9 9 9 10 10 11 10 11 10
9 8 8 7 6 7 7 8 9 8 12 9 11 13 15 6 7 9 6 4 1 5 1 0 4 7 14 11 8 8 10 14 11 10 8 10 12 11 13 14 14 13 12 13 12 12 12 17 14 15 15 16 17 17 17 17 17 17 17 16 16 15 14 14 13 12 12 12 11 11 12 11 10 10 11 12 11 11 13 13 12 13 12 11 10 9 9 8 9 8 7 8 10 10 10 10 10
8 9 8 7 6 5 6 8 9 12 11 11 13 11 14 8 4 7 7 5 2 2 3 3 7 9 9 11 8 8 3 6 9 8 10 10 15 14 13 9 11 12 13 12 12 11 13 14 15 15 15 16 18 17 17 17 17 17 17 17 16 15 14 14 13 12 12 11 11 11 11 10 10 10 11 12 13 14 15 14 13 12 13 12 11 11 10 8 7 7 7 8 10 11 9 8 8
6 7 6 7 8 6 9 10 12 12 12 14 13 13 20 10 3 2 5 2 5 4 7 6 3 17 9 8 12 10 10 9 9 11 10 14 14 12 13 11 10 12 14 12 11 11 15 14 15 15 15 16 16 16 17 17 17 17 17 17 16 16 15 14 13 12 12 11 11 11 11 10 11 11 11 13 13 14 14 13 13 12 12 11 10 9 9 8 8 8 9 10 10 10 9 8 7
8 8 4 8 7 7 10 12 13 11 12 15 16 17 11 10 2 3 7 4 2 6 10 8 6 6 11 9 8 8 13 14 14 16 18 13 12 10 11 11 12 13 14 12 11 11 16 13 14 15 16 15 17 17 18 18 18 17 16 16 16 15 15 14 13 11 11 11 11 11 11 11 11 11 12 13 13 13 13 13 13 12 11 10 10 9 8 8 8 9 10 10 9 9 9 8 7
8 8 6 9 10 7 10 12 12 13 15 16 18 20 14 1 8 6 5 2 2 5 9 7 3 9 12 16 11 9 12 16 16 16 15 14 9 8 8 11 13 12 14 12 12 14 14 13 14 15 16 16 16 18 18 18 17 17 17 16 16 16 15 14 13 12 11 10 10 11 11 11 11 11 12 12 13 12 12 12 11 11 10 10 9 8 8 9 9 9 9 9 9 9 8 7 5
7 7 7 7 7 11 11 11 12 11 14 15 18 20 17 11 10 8 9 10 7 7 5 9 8 4 18 15 12 8 9 13 13 13 14 13 9 7 7 9 12 14 12 13 12 13 12 17 14 15 15 17 17 17 17 16 17 17 16 16 14 14 14 13 12 12 11 10 9 10 11 11 11 11 12 12 12 12 11 11 10 10 9 9 8 7 7 8 8 9 9 9 9 8 7 6 4
7 7 7 9 10 10 11 10 12 13 15 14 17 16 7 3 5 8 8 12 8 9 8 9 8 11 15 12 9 7 12 13 11 13 12 11 9 9 9 7 11 11 14 13 13 13 13 14 18 16 16 16 15 15 14 14 15 14 14 13 13 13 14 12 13 11 10 10 10 11 11 11 11 11 11 11 11 11 10 9 9 8 8 8 7 7 7 8 8 8 9 9 8 8 6 6 4
8 8 8 9 10 10 10 11 13 12 15 13 14 8 4 5 3 7 8 10 9 10 11 10 7 11 14 11 7 9 11 13 11 12 11 11 10 9 8 8 12 13 14 14 13 13 14 14 13 16 15 15 14 15 15 14 13 13 13 13 12 12 11 11 11 11 10 9 8 9 10 10 10 10 10 10 10 10 9 8 8 8 7 6 6 6 6 7 7 8 8 9 9 8 6 5 4
9 8 9 9 9 10 12 14 11 13 12 8 2 3 8 7 7 9 10 8 10 6 11 13 8 11 10 10 9 10 12 11 11 12 11 10 11 10 7 8 11 15 13 14 14 14 15 14 13 14 14 17 13 12 13 14 11 11 11 11 11 9 10 11 10 9 10 10 9 8 9 9 9 10 9 9 8 8 8 8 7 6 5 5 5 5 6 6 7 7 8 9 9 8 7 4 3
9 8 8 10 9 11 11 10 11 11 9 6 1 10 9 5 3 6 9 10 11 9 9 11 3 19 15 12 8 8 9 12 14 12 10 9 9 9 8 9 12 13 14 14 14 14 14 13 12 12 13 12 11 11 11 11 10 10 10 10 9 8 9 9 8 9 10 10 9 9 9 9 9 9 8 8 7 6 6 6 6 6 5 4 4 4 5 6 6 7 8 9 9 8 7 5 2
10 7 9 9 10 10 10 10 11 10 7 11 9 10 9 6 6 8 13 11 11 11 9 10 13 10 6 10 8 10 12 14 13 12 10 10 10 8 11 10 11 13 13 13 13 14 14 13 12 11 12 11 11 7 7 8 9 10 10 9 9 9 8 9 10 10 11 11 10 10 9 9 9 9 8 7 6 5 4 5 4 3 5 4 4 4 4 5 6 7 7 8 9 9 7 5 2
8 8 7 9 10 10 9 10 11 11 8 9 4 2 6 5 9 10 9 12 5 2 8 8 10 8 8 7 15 17 16 15 12 10 10 12 10 10 10 11 11 11 11 11 12 12 12 12 11 10 10 9 8 7 7 8 9 9 9 10 10 10 9 9 10 10 11 10 10 9 8 7 8 7 9 6 7 6 4 5 4 2 4 4 3 3 3 5 6 6 7 7 9 9 8 5 2
8 8 9 9 11 10 9 12 5 8 10 9 7 8 4 8 8 8 7 11 11 13 5 8 13 16 17 8 22 21 18 13 11 11 11 10 9 9 9 8 8 8 8 11 10 10 12 12 12 9 10 10 9 8 5 7 8 10 9 10 10 10 9 10 10 10 9 8 8 7 6 5 4 4 5 5 7 5 6 3 6 5 5 5 4 2 3 5 5 6 7 7 8 10 8 5 3
8 9 9 10 9 11 10 13 9 4 9 8 4 5 9 10 10 11 10 13 10 11 10 16 20 17 16 15 17 19 17 14 13 13 11 11 9 9 9 9 9 10 9 9 12 12 10 10 11 10 8 10 8 6 5 5 7 8 8 8 7 7 8 9 7 5 7 5 6 5 4 4 4 4 4 7 6 5 5 5 7 6 5 5 3 3 4 5 6 6 7 7 8 9 10 4 3
9 7 9 11 10 10 13 12 10 5 10 8 10 8 4 11 11 8 8 8 10 11 11 10 15 15 18 16 15 14 15 12 11 10 12 12 10 11 9 9 10 10 9 9 8 11 8 9 9 9 10 8 7 6 5 5 8 5 7 7 6 7 7 6 4 5 5 6 5 5 4 4 5 5 4 5 4 8 6 6 6 7 5 6 5 4 4 5 6 7 8 8 8 9 6 4 4
11 9 10 11 12 13 14 15 4 7 4 4 8 7 12 5 5 10 11 12 10 10 9 11 12 13 15 13 13 13 12 13 10 10 12 12 11 11 10 10 10 9 9 9 5 5 8 9 11 10 5 5 5 4 4 5 5 3 4 5 5 4 5 4 3 4 5 4 4 4 4 0 2 2 3 5 7 3 4 6 6 6 6 7 6 4 4 4 6 7 8 7 5 5 4 4 5
9 11 11 10 13 15 14 8 5 3 6 5 5 3 9 3 8 4 9 13 12 9 12 14 16 15 14 12 12 9 11 12 12 11 10 11 9 8 7 8 8 8 7 6 5 9 15 13 10 5 4 5 5 4 4 6 3 1 3 5 4 4 4 3 3 6 2 0 5 3 1 3 4 8 6 7 2 3 3 2 2 2 3 3 7 4 3 4 4 4 4 5 5 5 6 6 6
7 12 14 15 12 14 14 6 7 11 3 3 4 4 10 7 10 4 9 12 6 7 13 19 20 17 14 9 9 10 10 11 11 12 10 8 9 7 5 5 5 7 5 3 10 13 15 12 4 6 11 12 12 10 9 9 4 8 6 8 7 7 5 5 7 1 1 2 3 2 2 3 5 6 2 0 4 6 2 2 2 3 3 4 5 5 4 3 4 4 4 5 5 5 5 7 3
11 10 12 16 18 15 8 7 9 5 4 7 8 6 9 6 4 8 9 3 12 20 18 23 19 18 16 14 12 10 11 10 12 10 8 7 7 5 3 2 2 4 7 13 12 12 9 7 8 9 9 6 7 4 1 5 6 5 6 6 5 5 5 6 4 2 2 3 2 1 2 3 5 4 4 4 4 4 2 3 3 4 5 5 4 5 4 3 3 4 4 4 5 6 6 3 1
11 11 11 14 16 15 11 8 2 2 5 10 10 5 5 6 11 10 12 8 18 22 18 16 19 19 17 16 14 12 11 11 8 6 6 4 2 4 2 1 8 13 13 14 12 9 9 9 10 12 11 9 8 8 8 6 5 7 8 9 8 10 7 4 2 2 1 2 2 2 2 3 4 5 6 7 7 6 7 5 4 4 6 4 4 6 4 4 4 4 4 5 6 7 0 2 3
13 12 14 12 13 13 13 5 8 3 9 11 10 8 8 11 11 8 14 8 18 17 18 15 13 14 14 13 12 11 10 8 7 4 2 3 2 3 5 14 16 11 11 6 9 9 10 9 8 10 9 10 8 7 6 5 5 4 4 6 5 4 5 7 5 5 5 4 5 6 6 5 4 3 4 6 5 4 4 6 6 4 5 3 5 7 5 5 5 5 4 5 6 3 1 2 3
14 13 13 14 13 11 14 14 10 7 7 9 9 9 11 10 13 13 14 9 12 19 18 15 12 12 12 11 9 8 8 8 5 6 2 2 4 4 14 14 8 10 6 9 11 6 7 8 6 6 7 5 3 4 6 6 3 4 3 5 7 6 6 7 7 5 5 5 5 5 2 2 2 2 4 0 2 2 3 4 5 7 7 2 4 6 6 6 5 6 5 7 6 3 2 2 3
10 16 14 15 15 10 8 13 12 9 10 9 12 11 12 13 8 7 13 9 9 14 19 16 12 8 11 11 9 7 7 6 5 5 2 3 5 11 13 6 7 8 8 8 6 8 6 8 7 4 5 7 7 6 6 8 6 7 7 6 7 6 4 4 5 4 5 4 2 1 2 2 2 2 1 1 2 2 3 5 4 2 2 3 4 5 6 6 7 6 5 4 3 4 3 3 4
17 7 12 16 16 14 10 11 12 9 11 13 11 13 12 12 7 11 12 11 12 12 15 18 16 12 10 11 8 6 5 5 5 3 3 3 10 9 6 5 6 6 4 7 6 9 9 9 9 7 7 8 9 8 7 9 9 7 7 6 6 5 6 4 3 4 5 4 4 4 4 4 4 4 4 3 3 4 3 2 3 3 5 4 5 5 4 7 6 5 3 4 2 1 4 2 5
14 8 9 11 13 15 14 13 13 12 11 14 11 13 13 14 12 19 9 11 10 13 14 15 16 13 10 12 7 4 6 6 5 3 4 12 10 6 6 6 4 4 7 5 7 9 11 9 7 6 7 8 8 8 6 5 5 4 5 5 5 6 5 4 3 4 4 3 1 2 2 3 4 6 5 5 4 4 4 2 2 2 4 5 3 2 3 3 10 3 3 3 2 2 3 4 5
12 12 9 11 12 13 16 14 11 13 12 15 10 10 11 14 13 18 11 14 13 14 14 14 12 10 8 9 9 5 4 6 5 4 11 9 7 5 7 3 7 4 7 5 6 7 7 7 5 5 5 5 6 5 5 4 4 4 4 5 5 6 6 5 5 5 4 4 4 5 4 2 3 3 3 2 2 3 3 4 5 6 4 2 3 3 3 4 8 4 4 4 4 4 2 1 4
12 10 10 10 9 11 14 14 13 14 9 10 14 11 10 12 13 18 14 13 14 15 15 16 14 11 8 8 9 8 6 4 4 14 12 9 4 4 2 4 4 6 7 7 7 6 5 4 4 4 4 5 6 5 5 4 4 4 4 4 5 4 5 5 5 4 4 4 4 3 4 4 4 4 4 2 2 3 3 3 3 3 4 5 5 4 3 5 5 2 4 4 3 2 2 4 5
10 11 13 11 12 10 14 18 17 15 11 16 15 12 11 13 13 19 12 12 13 12 16 17 15 11 10 8 9 8 8 7 14 12 10 7 5 2 5 5 3 5 5 5 5 6 5 3 3 4 5 6 5 4 3 3 4 4 3 5 4 2 3 5 6 6 5 4 4 5 6 4 4 4 4 3 2 3 3 3 3 3 3 3 5 5 4 5 3 1 3 3 3 4 2 2 3
10 12 10 12 12 12 12 19 17 18 14 17 17 10 14 12 16 15 14 12 13 11 13 20 18 16 12 10 9 7 8 15 10 9 7 5 3 3 3 6 3 3 2 4 4 4 6 6 4 5 6 6 5 4 2 1 3 4 3 3 4 3 1 2 1 3 3 4 4 4 5 6 6 5 5 5 4 4 3 3 3 4 3 3 3 3 4 2 2 3 2 3 3 2 5 4 4
11 11 11 12 14 12 13 14 19 19 18 14 16 12 15 11 19 17 15 15 15 12 13 16 16 14 10 10 9 8 10 14 10 8 7 5 4 4 4 5 4 2 2 4 4 4 6 6 5 5 6 5 4 3 3 3 4 3 3 3 5 4 3 2 1 1 2 3 4 4 5 5 6 6 6 5 5 5 3 3 3 2 3 3 4 3 3 0 1 3 1 2 2 0 3 3 4
10 10 11 12 14 14 15 11 17 18 20 16 14 18 19 16 17 17 16 15 14 13 13 21 19 16 14 13 10 10 15 14 11 8 7 5 5 6 5 5 3 4 3 4 4 5 6 6 5 6 6 5 4 4 4 3 4 3 2 3 4 3 1 2 3 3 3 3 3 3 3 5 6 6 6 7 5 5 4 4 4 4 4 4 3 2 2 1 2 3 4 4 3 4 3 3 1
14 14 11 12 12 11 15 13 18 19 18 15 16 17 20 20 16 16 15 14 14 12 5 16 13 10 10 7 10 12 14 15 11 9 7 5 4 4 6 5 4 5 5 4 5 5 6 6 6 5 4 5 4 2 2 2 3 4 3 3 2 1 2 3 3 3 3 3 4 4 5 5 5 6 7 6 5 5 5 5 5 4 4 4 4 4 4 3 4 5 6 7 5 4 4 3 0
14 14 14 13 15 12 15 17 18 19 16 16 17 17 19 17 14 15 14 11 9 10 13 16 14 12 10 16 16 15 15 12 9 7 4 4 6 5 5 5 6 6 5 4 5 5 6 5 5 6 3 3 4 4 3 2 2 3 2 2 3 2 2 2 1 1 1 2 3 5 5 5 5 5 6 6 7 6 5 4 5 5 5 5 5 5 5 5 5 4 5 5 5 4 4 2 2
19 13 13 12 15 13 14 14 20 19 12 15 16 16 18 11 12 15 14 17 15 10 11 15 15 14 12 16 16 15 13 10 10 7 3 4 7 7 5 5 6 7 5 6 5 6 6 6 7 5 4 2 2 4 3 2 2 3 1 1 2 3 2 3 3 3 4 3 3 3 3 4 5 5 5 6 6 6 6 6 5 5 5 5 5 5 5 5 5 5 4 3 3 4 3 3 2
19 15 11 10 12 15 13 14 23 18 15 12 18 16 14 14 14 11 12 8 5 10 6 11 15 17 15 16 16 15 14 13 10 9 6 5 6 6 6 4 5 6 6 7 7 6 6 7 6 5 3 3 4 3 1 2 2 2 1 1 1 1 2 1 2 3 3 4 3 3 4 5 4 4 6 6 6 6 6 5 5 5 5 6 6 6 6 5 5 6 6 5 4 2 2 2 3
14 14 13 12 12 12 9 14 16 19 11 10 15 16 11 12 10 11 11 14 14 11 9 7 10 16 17 14 11 13 14 13 12 11 8 6 5 6 6 7 7 5 6 6 5 6 6 5 4 4 6 4 3 3 3 2 2 1 1 2 2 2 2 1 2 1 2 4 4 4 3 3 3 4 6 6 5 5 5 5 5 5 5 5 6 6 6 6 5 6 5 4 3 3 4 4 5
15 17 13 14 16 14 15 9 7 12 15 13 14 13 7 10 11 9 12 12 10 9 7 9 18 19 18 17 12 10 13 13 12 9 9 5 5 6 7 8 9 8 7 7 5 5 5 6 5 6 4 3 2 2 2 2 2 1 1 1 2 2 3 4 3 2 3 3 3 3 4 4 5 5 5 6 6 6 5 4 4 4 5 5 5 6 6 6 6 6 5 5 5 4 4 3 5
14 17 17 15 11 15 19 12 13 7 10 14 13 11 8 11 14 12 9 9 10 11 11 11 16 18 15 13 13 12 13 12 12 9 9 8 8 7 7 8 9 8 7 5 4 6 6 5 5 4 4 3 3 3 2 1 0 2 0 2 2 3 3 3 3 4 3 4 4 3 4 4 4 5 6 6 7 6 6 6 5 5 5 5 5 6 5 5 7 6 6 6 6 6 3 3 2
13 13 18 18 16 14 17 15 14 11 12 15 17 12 7 11 15 14 12 12 13 13 10 12 14 13 14 12 7 10 12 11 11 12 9 9 9 9 9 8 8 7 6 4 4 5 5 4 4 6 4 3 3 3 2 2 2 1 1 2 4 4 4 1 1 1 3 4 2 2 3 4 5 6 6 6 5 6 6 6 5 5 6 6 6 5 6 6 6 7 5 6 6 5 4 3 4
13 9 17 18 19 17 18 15 14 9 8 9 18 13 9 11 13 16 16 14 15 14 13 13 15 13 12 11 13 8 11 11 12 10 9 8 8 10 9 8 6 6 5 5 4 4 5 4 4 4 3 3 3 3 2 1 2 2 2 2 2 4 3 2 2 3 3 2 2 3 2 2 4 4 4 6 6 6 6 6 6 5 6 6 6 5 6 6 5 4 6 5 4 5 5 6 5
11 13 17 18 18 17 17 14 13 9 9 11 14 19 12 10 12 17 17 17 16 14 13 10 16 15 13 11 11 10 12 12 12 10 9 10 11 10 10 10 9 8 5 5 4 4 4 4 4 3 4 3 3 2 2 1 1 2 2 3 4 3 3 4 2 2 3 3 2 2 2 3 4 4 5 5 5 7 6 6 6 6 6 6 6 5 6 5 6 4 5 7 9 7 8 8 6
15 15 13 14 17 18 16 12 13 10 9 11 17 17 11 9 10 13 16 15 16 15 13 15 14 16 15 11 12 13 13 13 12 11 10 11 11 9 9 9 10 9 8 8 7 6 6 5 4 5 4 2 3 2 2 1 2 3 3 3 4 4 3 3 3 2 1 1 3 2 2 2 3 4 5 6 6 6 6 5 6 7 6 7 6 6 6 7 6 5 7 8 9 9 8 9 8
12 19 14 14 15 12 13 10 12 10 8 14 16 18 14 10 10 10 12 14 13 13 13 12 14 15 15 13 13 11 10 10 10 11 10 9 9 9 8 9 9 8 6 7 7 7 7 7 6 7 7 4 5 5 5 5 4 3 3 4 5 6 6 5 4 4 3 2 3 4 3 2 4 5 4 4 6 6 5 6 5 6 7 6 6 6 7 8 6 6 6 8 9 10 8 7 6
16 12 13 11 10 12 11 9 12 7 9 14 19 17 21 13 8 12 11 12 16 15 17 17 15 15 14 12 11 12 11 11 10 10 10 9 9 7 8 9 8 8 7 6 6 6 6 6 6 6 6 6 5 5 6 6 5 5 5 6 6 5 5 5 5 5 3 5 3 3 3 3 5 4 4 4 4 5 5 6 6 7 5 5 6 6 6 7 7 6 6 8 9 9 7 7 8
15 14 12 12 9 6 8 9 8 10 9 13 18 19 15 16 7 6 13 8 18 17 17 17 16 14 13 12 12 11 10 10 10 8 8 8 7 7 8 8 7 6 6 6 6 5 5 5 6 5 5 4 4 5 6 6 6 5 5 6 6 6 7 6 6 6 3 3 2 3 3 4 5 5 5 4 4 5 5 6 6 3 4 7 7 7 7 8 7 8 7 9 9 9 9 9 8
16 15 12 13 12 10 7 11 7 9 13 15 18 17 10 8 7 13 11 17 15 17 16 15 15 14 13 12 11 10 10 9 8 8 8 7 7 7 6 6 6 5 6 6 6 5 4 4 4 4 4 4 3 3 4 4 4 5 5 6 6 6 6 6 6 5 5 3 2 3 4 4 4 5 6 6 4 5 6 6 4 6 6 7 9 8 8 6 6 5 8 9 10 8 8 10 9
16 15 15 13 12 9 8 10 10 12 10 14 15 13 6 11 5 7 17 18 18 16 16 14 14 14 12 11 12 11 10 9 8 8 8 7 7 7 6 6 5 5 6 5 5 5 4 4 5 6 6 5 4 3 3 4 5 6 6 5 5 5 6 6 6 6 6 7 5 4 4 4 5 5 5 6 6 7 6 4 3 4 8 9 9 8 8 7 8 8 7 9 9 7 8 8 7
14 14 13 13 13 9 10 5 9 8 9 9 8 2 6 8 9 11 12 15 17 17 15 16 14 12 12 11 10 9 9 9 8 8 8 8 7 6 6 5 5 5 6 5 6 4 4 5 5 6 6 6 6 5 4 4 4 4 4 5 5 6 6 6 6 6 6 6 7 6 6 5 4 4 4 5 5 3 4 3 2 5 8 8 7 9 8 6 6 6 8 7 9 5 8 10 8
12 15 15 14 13 12 4 5 12 2 2 8 6 5 8 9 7 11 13 13 14 14 14 14 13 12 11 9 8 8 8 8 7 8 8 8 7 7 6 6 6 5 5 4 4 5 6 6 5 5 5 3 4 5 6 5 4 3 3 5 6 7 7 7 7 7 7 6 6 6 6 6 6 5 5 5 4 4 3 4 5 6 4 6 8 9 9 6 5 6 7 8 9 9 7 9 8
10 15 14 14 16 13 6 7 4 6 7 4 8 12 10 10 3 7 10 12 12 13 13 13 13 12 11 9 8 7 8 9 8 8 8 8 7 7 5 5 6 5 5 5 6 5 4 3 5 5 6 7 8 7 6 5 6 6 7 8 8 8 8 8 8 7 7 7 6 6 6 7 5 5 5 5 4 5 4 4 2 2 3 5 7 7 7 7 6 7 8 8 7 7 7 5 7
13 14 11 13 6 12 10 4 9 10 8 7 9 14 12 12 9 12 15 15 14 14 13 13 12 10 10 8 9 10 9 8 7 7 7 7 7 5 5 5 6 6 4 5 6 6 6 5 4 5 6 7 6 5 5 7 8 6 6 7 8 7 7 7 7 8 7 8 8 7 7 7 7 6 5 6 4 5 3 5 4 3 2 7 9 9 8 5 6 7 9 8 7 7 8 10 10
19 14 15 14 8 10 6 6 7 8 7 7 9 12 7 9 11 18 19 18 18 16 14 13 12 11 10 10 9 9 8 7 7 7 7 6 6 6 6 5 6 5 5 5 5 3 5 5 7 6 6 7 7 9 8 7 6 7 7 6 7 8 8 7 7 8 9 9 9 8 9 7 7 7 6 5 6 5 4 5 3 2 4 5 6 5 4 6 7 8 8 6 8 9 9 9 9
17 14 14 13 8 6 10 9 11 8 7 9 3 3 5 2 12 18 19 20 19 18 15 13 12 12 10 9 7 7 8 7 7 7 6 6 6 6 6 5 6 6 5 4 3 6 6 5 5 6 6 6 7 6 5 3 3 4 5 6 7 8 9 9 9 10 10 10 10 10 9 8 7 7 6 7 6 7 7 5 4 4 4 2 4 9 7 7 7 9 7 9 5 6 9 9 9
15 13 12 14 14 12 13 10 10 11 9 7 7 4 5 6 4 15 20 17 18 17 17 14 14 13 11 8 9 9 8 8 6 7 6 6 7 7 7 6 6 6 5 6 6 5 4 5 5 4 6 7 6 6 6 6 4 5 7 8 7 7 8 8 8 8 8 9 10 10 11 10 8 7 7 8 9 7 4 4 4 5 4 4 5 7 8 7 6 5 6 7 6 9 7 8 6
Wind_Direction
272 251 253 255 252 270 285 250 262 198 216 252 265 254 272 260 269 294 302 310 288 51 56 3 67 296 9 49 86 71 45 45 24 41 92 115 146 126 113 112 116 112 114 120 130 131 127 125 123 120 122 122 124 126 127 126 125 126 127 127 128 126 128 129 129 126 126 127 125 127 125 121 121 117 115 109 106 107 111 114 115 113 113 112 110 106 102 99 97 95 93 90 88 86 87 89 89
257 253 241 249 263 275 247 216 246 273 268 267 262 268 264 266 206 246 255 304 62 78 37 7 334 46 275 116 100 84 60 61 68 78 102 119 119 120 124 123 112 117 117 121 135 139 132 133 127 123 127 129 129 130 129 128 128 129 130 132 132 132 132 136 134 132 133 131 132 132 128 126 127 125 115 112 112 111 111 113 115 113 112 110 106 104 103 101 99 96 97 92 87 86 84 87 89
273 281 258 232 244 243 284 282 260 268 276 267 269 260 253 247 255 94 13 67 60 38 37 16 353 185 165 223 94 84 90 86 85 94 95 124 122 128 118 116 112 110 118 130 137 140 131 139 131 129 130 132 132 132 132 132 132 133 135 135 137 138 138 139 140 137 136 132 132 131 131 130 131 131 120 117 116 113 109 113 112 113 110 109 107 102 100 100 98 92 92 97 95 90 88 87 89
285 274 273 266 268 210 247 236 246 260 260 266 281 287 290 318 336 29 56 51 61 356 77 215 223 13 356 86 107 99 103 80 95 113 125 136 117 131 118 109 110 114 128 137 138 140 134 140 137 135 134 136 137 135 137 136 137 138 138 141 141 143 142 142 144 143 139 133 127 126 130 132 134 134 122 120 122 122 116 111 110 107 105 105 106 103 101 103 98 95 92 93 98 98 94 89 88
264 261 255 261 273 260 237 239 252 240 245 251 260 271 287 359 293 65 72 49 120 285 189 162 260 120 70 41 54 75 85 95 98 113 113 101 119 113 98 114 122 128 138 145 142 133 136 144 141 140 139 140 142 143 141 143 142 144 144 144 145 146 145 146 146 145 140 133 126 122 122 124 128 128 119 118 122 117 118 113 112 111 110 105 92 84 77 68 77 83 98 104 100 98 97 95 90
250 259 237 247 245 341 289 257 240 239 251 270 273 274 284 317 346 94 105 182 93 113 237 189 260 134 71 57 58 72 75 90 116 98 107 115 118 116 114 115 131 138 144 142 134 122 148 146 146 145 144 147 149 148 147 146 147 149 150 149 148 149 149 148 149 147 141 135 130 125 119 117 118 119 116 109 103 104 109 112 113 113 107 98 91 83 76 77 85 89 100 107 103 100 97 95 95
237 237 219 219 251 253 256 254 250 255 256 257 248 253 264 261 51 8 310 290 149 278 139 241 234 103 105 113 72 52 31 131 121 108 110 115 119 120 125 134 139 143 147 137 133 141 152 150 150 149 149 150 151 150 150 151 152 154 155 151 151 150 150 152 152 149 145 140 136 128 120 113 115 116 115 112 106 103 107 107 104 103 100 98 94 89 89 85 82 85 93 101 100 100 100 99 97
253 275 232 219 242 209 231 246 254 257 256 252 261 257 260 42 152 217 269 56 174 243 152 239 228 240 113 132 106 58 60 62 95 103 108 113 128 126 133 135 146 150 135 128 134 134 146 154 154 153 153 152 153 155 156 158 157 158 155 153 152 150 152 155 156 149 145 146 139 130 117 112 116 117 115 114 111 107 107 108 107 104 103 101 98 90 90 99 98 96 98 103 107 106 104 99 94
233 235 262 271 244 247 247 238 249 242 251 256 263 272 304 295 68 280 287 54 348 237 177 203 168 239 106 87 90 93 66 80 92 103 110 121 125 138 139 154 147 146 145 134 130 134 154 159 158 156 155 157 158 159 160 160 160 158 156 153 154 154 154 155 153 149 150 147 140 131 117 113 113 114 113 114 113 114 112 111 111 108 105 102 96 94 97 104 107 105 105 102 102 102 99 96 98
239 219 222 235 258 252 252 254 251 244 247 236 248 249 240 242 220 239 270 275 243 262 155 198 182 109 113 106 117 106 106 102 106 112 126 133 138 143 161 154 144 146 118 122 134 142 155 161 160 158 159 159 161 162 162 161 160 158 157 156 156 152 153 151 151 151 151 147 138 135 119 118 110 111 111 114 116 117 117 114 115 114 106 102 99 100 100 104 112 111 105 104 101 101 100 98 94
238 194 257 257 239 245 247 257 254 246 238 247 243 241 90 89 255 247 232 252 217 218 221 205 180 150 105 88 80 106 112 111 121 126 133 143 146 151 157 159 138 134 125 136 145 146 153 162 163 160 160 161 160 162 160 159 157 157 157 156 152 152 153 153 152 152 147 144 141 133 116 125 124 113 114 116 119 117 117 120 121 120 109 106 108 100 106 110 111 114 109 103 103 103 103 104 89
246 230 191 237 248 251 249 248 249 261 267 244 236 201 217 170 216 258 232 229 235 206 225 175 212 129 113 116 123 119 129 129 131 130 135 148 154 154 153 159 132 123 140 149 149 150 154 163 164 163 160 158 159 159 158 158 156 156 155 153 151 152 150 143 145 145 143 137 136 127 119 125 132 125 114 114 113 115 118 123 127 121 120 117 115 109 107 114 115 115 116 112 108 107 108 104 92
246 244 224 232 238 239 257 269 273 269 273 272 22 243 208 205 210 220 243 236 237 201 232 161 218 188 121 105 115 136 134 135 127 131 147 157 147 153 154 148 140 146 158 154 155 158 158 161 164 166 161 157 152 155 158 156 154 150 150 149 150 144 131 136 137 138 138 135 132 127 130 130 131 125 117 115 117 116 120 129 134 133 134 133 123 112 109 115 121 127 122 119 115 110 106 100 88
233 236 261 249 240 253 258 262 261 257 252 289 221 76 97 145 175 266 252 227 229 204 229 157 137 86 103 110 130 136 137 137 129 140 149 146 145 150 152 142 139 151 157 158 160 160 161 164 159 161 159 157 156 153 150 149 145 144 145 143 140 127 121 118 114 117 122 126 127 134 143 135 127 122 120 124 128 124 122 134 142 158 152 149 136 121 115 116 127 130 129 124 119 115 111 108 96
244 235 250 262 272 271 243 248 254 260 266 254 91 147 146 184 246 222 237 236 223 204 211 150 128 187 143 146 146 151 145 143 142 145 146 146 149 152 150 147 150 159 162 161 162 161 162 164 155 155 157 158 156 151 153 148 142 139 136 132 129 123 116 112 111 116 123 127 133 138 141 137 128 123 126 130 122 115 140 145 157 167 172 165 157 127 122 129 131 135 137 131 125 118 114 120 147
236 254 241 250 248 252 257 248 241 279 277 70 132 239 181 169 217 250 232 252 217 71 160 129 44 30 122 218 147 144 143 136 143 142 144 151 150 146 152 151 162 168 159 163 166 164 164 158 153 149 154 153 146 148 149 153 147 134 132 129 127 128 123 118 114 123 128 133 141 143 144 142 136 133 133 131 135 137 149 186 149 197 187 188 166 152 138 144 148 147 142 141 130 125 123 134 168
232 249 251 238 246 244 253 264 260 217 243 131 117 236 196 236 202 231 242 234 257 125 141 78 80 69 53 61 122 130 137 135 140 148 155 151 153 157 153 155 165 173 166 170 171 167 166 154 149 143 152 141 146 143 144 143 139 142 134 134 131 133 131 124 122 127 129 139 146 150 161 158 159 145 156 155 154 164 179 192 159 190 203 199 181 193 170 152 154 154 153 151 142 135 137 145 192
218 222 243 245 241 239 245 251 255 291 260 63 1 211 197 237 160 220 212 216 238 159 100 91 75 74 82 80 103 121 127 138 149 157 161 160 163 161 167 168 174 180 180 175 176 176 161 144 142 142 144 137 146 133 134 140 138 154 156 147 141 134 127 124 126 140 156 150 154 167 184 195 166 165 181 152 170 166 178 169 173 179 209 209 198 221 187 164 162 167 171 165 157 150 150 159 191
230 223 230 239 230 241 250 252 245 313 343 108 30 349 292 247 160 180 207 212 204 164 118 122 94 93 89 98 107 117 130 142 159 159 166 165 175 171 173 171 181 173 183 184 182 179 155 134 135 133 126 135 136 127 124 121 142 160 156 154 144 139 138 137 148 162 185 168 183 181 202 218 178 162 184 150 173 163 157 166 177 181 206 216 219 229 204 183 173 177 179 178 175 173 179 183 187
220 247 225 230 247 249 238 245 299 31 280 12 212 183 228 313 210 146 217 201 203 191 161 144 124 115 113 115 120 128 140 148 165 172 173 176 180 173 178 179 174 181 183 189 183 170 120 57 35 14 80 129 124 107 114 117 134 159 140 141 121 131 129 150 171 195 202 171 192 180 221 322 36 63 176 179 142 135 125 165 187 206 201 213 218 214 200 188 189 188 184 187 191 201 223 204 184
191 229 241 234 222 250 260 307 323 348 14 12 305 12 237 129 235 148 207 203 212 196 184 156 140 126 123 134 140 143 149 159 163 177 181 187 184 182 185 183 183 174 189 177 157 60 58 64 78 113 17 49 37 64 84 105 142 138 95 123 120 133 116 26 298 267 347 211 181 189 60 56 33 56 34 320 359 115 147 159 200 220 220 209 205 236 207 197 185 195 191 198 221 222 223 233 183
244 220 236 255 244 231 244 15 272 240 181 285 323 230 228 216 236 216 223 225 216 234 194 155 126 123 129 133 142 145 164 163 170 173 189 190 189 184 186 194 167 174 180 138 59 71 66 79 71 37 42 26 18 16 27 344 52 26 9 42 34 36 77 192 224 209 263 319 323 74 123 88 76 72 62 171 357 331 287 182 182 227 229 228 193 234 212 199 199 202 192 205 225 226 234 254 222
239 236 232 244 257 279 325 239 256 306 90 210 263 292 1 334 201 245 250 159 62 63 74 104 119 130 141 143 148 161 171 180 172 184 185 183 180 184 177 212 180 53 19 47 72 70 84 88 87 72 59 56 56 346 38 108 119 126 93 99 111 130 196 183 207 141 182 241 283 0 75 122 108 137 195 158 159 199 228 283 215 206 228 226 208 234 223 208 200 215 198 198 227 230 233 255 294
228 247 227 237 254 255 258 313 52 197 274 257 251 298 319 230 243 216 243 141 92 91 104 118 128 137 142 148 154 162 177 170 188 181 175 171 188 135 152 93 39 42 53 68 68 105 140 140 127 123 153 164 154 199 172 141 140 134 134 134 140 168 169 149 194 188 193 220 237 212 158 150 144 180 188 171 193 182 164 167 311 289 208 214 203 237 213 225 214 227 195 199 217 232 218 286 304
226 231 254 249 238 247 257 244 255 164 227 244 257 274 235 237 243 209 227 147 114 104 106 110 123 132 137 141 162 164 169 170 183 168 112 130 85 76 52 47 53 74 83 98 134 148 158 124 124 136 149 155 171 179 127 109 100 91 129 131 133 150 133 169 171 168 186 206 203 216 181 166 139 200 211 186 182 189 168 154 183 223 292 251 185 242 218 207 219 237 203 213 222 219 82 298 274
227 233 233 256 259 236 221 232 232 231 237 220 232 237 245 235 245 279 228 160 150 121 117 116 125 130 134 144 154 172 163 162 180 126 140 71 91 98 60 69 87 78 137 159 148 139 105 109 124 139 158 152 120 87 81 90 73 82 150 149 152 164 171 174 148 155 201 211 209 217 198 144 153 186 260 175 184 246 148 219 213 182 194 194 269 231 226 192 224 233 216 217 221 146 189 250 287
209 219 233 243 246 250 246 247 231 223 245 219 228 224 234 235 201 228 240 142 144 131 124 134 131 142 144 146 157 176 157 151 140 110 152 137 116 68 74 91 118 184 166 134 127 114 107 113 127 137 120 128 128 122 125 133 154 163 168 156 149 155 157 159 155 165 211 213 219 191 190 181 150 119 226 229 134 205 195 183 246 262 266 225 216 262 274 197 218 230 242 206 220 157 197 257 253
259 260 221 226 248 253 239 225 245 219 222 234 225 233 222 223 174 234 200 134 170 148 138 145 144 158 145 141 156 168 150 128 121 121 154 103 62 80 107 140 172 184 133 110 115 126 130 133 144 158 151 150 142 144 153 156 154 161 154 138 135 146 165 172 159 170 195 209 204 176 195 157 154 179 208 196 176 168 189 186 209 206 234 229 203 229 315 317 232 223 253 294 209 99 144 195 252
242 200 248 258 237 241 236 236 212 222 219 216 213 240 219 211 201 234 179 149 161 161 153 138 138 143 137 136 131 147 141 122 125 142 109 66 100 116 147 207 163 65 56 94 132 141 139 148 147 162 154 151 147 150 151 146 124 134 134 121 135 151 163 155 167 178 193 182 162 201 209 182 156 167 187 198 173 160 179 186 131 265 227 221 215 199 152 246 285 234 264 276 234 170 173 205 246
260 248 240 240 243 232 227 236 220 212 225 189 202 230 214 208 199 227 202 155 181 169 161 139 122 127 128 141 129 134 118 130 133 120 81 96 101 158 176 159 64 110 132 134 163 153 152 152 157 152 154 142 134 124 115 127 143 142 127 140 142 164 161 165 170 182 187 177 161 177 185 190 185 166 192 209 158 154 180 196 183 198 193 266 212 216 190 209 238 214 227 239 243 178 210 187 254
239 237 241 250 242 239 212 218 208 223 207 194 198 228 213 201 192 222 215 155 188 177 152 134 131 130 129 134 134 139 138 124 108 81 94 98 148 197 95 68 150 124 141 167 176 147 140 136 140 146 135 125 116 117 140 143 152 149 141 135 139 177 165 171 167 173 179 172 159 152 161 179 180 185 198 203 182 182 188 191 183 179 149 190 208 216 227 248 255 255 209 230 216 206 205 193 246
227 227 224 222 241 245 218 198 201 216 185 222 197 224 230 193 194 227 175 165 195 172 161 133 131 137 152 157 160 141 131 99 63 79 90 137 174 143 108 130 146 183 165 151 123 130 131 116 118 91 122 119 118 129 142 158 147 134 135 126 142 166 202 185 175 173 180 173 154 164 173 168 175 190 195 179 213 209 177 194 188 181 169 173 208 213 225 239 242 315 296 229 228 207 201 233 250
222 225 227 227 223 241 244 189 193 201 210 209 210 213 231 204 187 206 148 180 190 184 186 143 139 149 168 155 127 152 134 87 85 97 130 133 142 125 154 127 162 216 83 106 119 118 114 124 121 92 101 104 106 121 144 127 119 110 94 126 133 163 238 339 339 144 165 183 171 170 159 155 194 193 200 194 211 217 187 181 192 186 185 182 192 242 221 211 131 194 238 359 350 261 218 211 230
222 206 231 232 226 216 251 179 186 190 218 196 200 228 228 218 185 186 164 182 184 199 193 151 150 151 151 119 155 150 137 109 121 129 127 127 128 150 113 121 157 163 85 102 114 108 104 103 102 107 115 116 125 138 144 196 132 127 155 169 160 166 190 186 291 266 200 202 161 170 157 165 181 191 193 195 207 207 195 197 179 175 197 197 181 159 254 102 151 174 221 248 189 75 287 237 210
216 209 213 229 237 225 233 209 173 189 208 210 182 227 239 239 190 170 164 192 180 203 201 140 152 156 143 166 155 134 100 113 113 117 130 133 151 131 107 109 118 120 125 115 107 96 98 103 108 103 107 113 131 156 173 173 124 165 164 197 157 154 162 200 198 220 199 158 135 160 178 173 186 193 190 190 202 195 198 196 196 191 199 203 199 182 174 160 214 165 197 242 245 218 210 277 301
223 213 209 225 235 212 231 223 166 191 192 210 190 218 234 235 233 162 168 195 182 205 178 128 140 112 82 128 151 113 111 107 117 125 141 157 153 126 109 103 100 102 100 91 92 100 103 108 108 113 103 114 125 150 182 184 170 161 179 182 121 124 209 218 215 204 169 175 173 179 174 178 198 195 200 192 202 200 194 193 198 199 202 187 194 205 188 182 209 193 198 204 209 228 245 262 84
234 220 215 217 233 230 228 230 166 180 196 204 207 220 233 242 164 153 168 189 189 204 124 134 131 142 124 90 101 110 106 112 124 122 132 144 126 105 96 96 101 118 114 127 113 103 118 113 121 113 118 136 158 167 185 187 193 169 169 128 112 207 225 252 241 285 192 201 212 199 184 196 204 196 201 193 196 202 201 201 203 201 196 197 200 208 193 188 190 194 198 205 197 203 223 209 205
252 242 225 213 224 235 225 216 160 166 212 194 217 219 231 207 156 173 182 186 201 198 176 139 138 132 128 118 112 108 112 116 121 129 156 143 116 116 122 117 121 104 116 126 100 91 99 116 97 103 111 141 95 53 37 47 24 59 89 134 145 186 186 191 236 223 210 214 204 211 189 198 209 201 186 191 197 197 200 205 202 197 195 200 209 209 200 192 184 187 171 187 217 203 213 176 172
243 251 228 223 221 243 215 223 159 168 199 199 201 225 214 186 179 175 192 209 183 212 207 146 145 159 139 138 125 119 121 123 124 116 146 118 113 100 81 86 96 119 123 108 108 109 99 87 99 111 137 115 80 86 89 99 124 118 66 45 352 293 164 248 247 214 196 202 201 213 197 202 201 198 190 195 201 205 207 208 206 199 209 203 210 217 205 197 195 197 179 182 176 204 237 226 191
240 241 253 217 216 219 212 226 194 168 184 199 192 217 214 186 160 183 183 182 209 194 157 167 66 79 110 114 104 127 126 128 130 131 133 125 109 115 135 131 125 108 111 104 88 86 88 87 94 90 79 94 124 136 122 108 66 15 57 7 0 327 323 247 272 265 218 202 194 226 201 196 200 205 202 202 207 215 214 217 211 200 208 209 213 213 212 208 198 199 177 178 162 184 199 220 201
232 243 242 247 198 205 239 180 196 163 170 233 185 219 170 147 156 155 199 194 167 128 153 139 98 104 123 123 138 136 127 125 124 126 118 124 122 113 105 80 75 78 74 71 66 78 90 90 90 101 114 92 79 46 70 30 57 237 150 190 218 235 229 238 233 216 236 236 216 199 211 189 210 209 211 208 212 213 220 229 217 206 213 212 212 216 216 209 209 202 179 169 191 200 203 216 191
224 232 244 255 234 199 227 157 166 173 182 223 211 201 167 181 171 175 190 124 177 170 178 168 99 114 116 118 124 126 122 121 127 127 124 123 115 98 89 86 75 68 69 67 67 81 87 103 115 110 101 88 81 81 37 64 101 314 178 271 244 230 215 191 213 231 238 224 206 181 215 211 205 217 217 220 220 210 214 218 215 186 215 218 218 220 218 200 204 203 196 191 202 211 229 255 167
226 207 231 244 235 220 224 161 165 183 214 193 229 214 178 182 180 186 176 170 178 175 177 145 101 94 117 124 107 119 121 116 122 121 116 107 102 94 85 80 83 86 89 94 99 98 96 87 64 57 64 80 80 67 59 10 340 310 4 320 310 311 309 301 62 139 231 240 159 181 207 212 220 206 218 227 216 220 212 218 221 176 195 211 218 217 216 210 201 201 190 197 204 207 198 216 192
224 197 221 237 256 225 217 166 186 200 215 216 216 222 213 171 186 187 178 178 186 169 176 165 120 118 105 101 129 129 110 108 109 97 98 89 85 83 85 83 90 95 95 95 86 87 91 91 90 79 70 74 56 45 13 31 342 332 324 284 285 286 290 310 262 189 223 230 209 191 218 238 238 242 218 219 227 215 221 224 222 208 196 198 218 223 216 216 192 186 180 200 202 193 200 215 186
222 211 212 227 237 247 253 203 169 199 176 225 220 211 235 204 181 182 178 183 181 166 169 132 115 108 100 113 99 111 109 104 99 97 85 84 84 83 87 80 70 61 67 76 78 83 95 100 95 94 82 60 58 39 69 299 321 286 285 288 277 268 274 265 247 211 193 188 241 195 219 239 236 241 252 245 226 233 220 215 218 226 213 199 193 219 230 211 200 178 183 200 213 204 197 216 189
217 233 196 226 235 244 259 239 186 174 190 217 218 202 229 228 183 182 178 192 181 172 153 117 121 116 113 114 119 104 91 89 86 82 80 80 74 65 69 75 63 51 38 46 47 39 38 35 54 77 69 45 68 38 332 328 278 284 287 281 281 280 288 291 294 313 313 130 276 269 208 220 251 244 233 243 247 234 233 226 224 229 229 225 189 203 216 222 202 187 207 206 206 207 199 206 198
209 237 233 210 230 237 248 262 221 187 210 219 220 205 220 226 191 196 184 196 174 168 121 117 116 117 111 107 103 102 96 95 94 91 78 76 77 77 69 71 70 58 49 44 41 40 35 36 40 48 44 26 24 20 358 342 331 301 276 288 298 302 305 308 310 291 341 308 237 258 255 244 232 238 241 243 249 252 239 227 223 248 237 227 216 201 212 215 206 195 213 223 216 202 197 194 193
214 226 234 202 219 238 256 240 197 195 210 213 217 208 195 236 193 188 175 181 171 150 133 127 123 114 113 114 113 110 109 107 104 101 103 96 93 81 81 77 65 60 51 46 43 42 36 31 22 28 32 22 10 6 352 350 341 336 330 324 312 307 309 311 304 304 263 272 291 274 283 289 280 257 222 243 261 264 249 241 227 223 236 264 225 208 216 208 210 200 209 223 219 208 196 193 187
210 226 233 201 198 217 237 206 178 202 213 210 224 207 196 210 23 322 172 83 95 112 126 131 124 117 114 111 108 105 111 110 106 106 97 93 86 90 84 81 78 70 59 55 46 44 44 31 16 12 38 21 15 350 355 343 336 334 338 333 331 336 329 326 323 311 304 277 281 278 293 279 268 277 275 270 259 281 313 310 296 304 271 267 270 235 227 218 201 195 212 223 209 200 196 194 196
210 217 224 205 197 198 227 206 201 203 222 215 220 202 207 84 53 33 84 110 106 108 120 124 124 118 116 114 109 103 101 105 101 96 94 92 89 83 81 86 81 70 66 57 47 38 35 37 15 9 21 30 3 1 340 325 328 333 338 335 339 338 330 325 326 325 323 307 281 270 253 256 262 261 270 260 243 253 247 243 288 302 303 281 256 259 246 217 215 234 208 212 212 200 192 194 193
208 211 219 205 207 196 206 209 197 212 211 214 234 210 146 144 97 45 88 99 108 109 120 120 115 115 110 107 102 97 102 103 98 100 101 99 98 97 89 82 77 71 64 57 54 46 28 25 10 12 8 7 354 2 336 358 350 342 347 347 339 337 332 330 330 330 330 331 323 293 266 256 263 267 259 265 254 256 270 264 223 289 286 276 274 261 267 259 221 208 224 221 220 191 186 190 192
205 210 219 205 213 197 217 206 241 206 224 228 235 52 19 82 97 82 90 99 104 117 115 120 114 116 112 105 107 114 113 105 109 105 99 91 89 87 87 81 66 63 59 51 49 37 35 29 17 13 15 6 353 359 3 5 351 341 336 346 343 342 341 332 327 327 326 319 316 310 303 292 276 269 271 277 267 238 241 216 151 238 248 259 271 269 250 235 259 250 234 215 224 191 171 184 194
189 214 204 208 208 210 190 191 233 7 298 229 107 123 83 101 86 105 102 110 112 116 123 118 118 114 113 108 114 117 112 112 115 111 98 95 85 78 71 69 68 59 62 62 62 57 41 26 14 12 13 357 15 8 357 347 329 332 356 359 0 352 344 332 321 315 311 308 299 298 294 294 290 284 281 269 285 284 242 240 211 204 241 258 261 265 261 251 238 233 231 218 218 200 187 189 187
188 213 196 207 215 226 188 211 187 238 227 203 125 134 152 148 163 152 145 127 131 126 126 125 117 122 113 116 117 121 123 117 111 96 88 82 77 68 69 70 65 59 53 56 54 58 63 60 13 11 12 13 7 10 356 335 357 358 7 10 358 351 336 326 323 320 316 311 306 303 305 297 292 289 280 275 257 255 265 271 253 220 209 258 262 263 269 255 258 260 252 221 211 209 203 207 208
215 205 187 213 176 216 200 208 200 201 214 219 144 145 159 179 141 161 154 150 145 137 130 127 126 119 117 121 128 124 116 118 105 97 88 76 72 73 67 65 64 58 56 60 54 35 39 26 27 20 15 13 4 3 350 7 7 2 7 357 351 338 327 321 317 317 317 313 314 313 308 303 297 289 281 285 283 282 286 282 280 260 211 255 260 265 265 265 274 265 238 237 225 199 195 200 208
221 189 203 220 238 220 220 213 230 208 207 230 154 167 171 187 161 169 165 160 153 143 141 137 129 131 130 134 131 120 121 108 98 85 80 80 84 88 75 64 67 57 51 51 62 64 43 36 20 18 19 10 7 10 12 12 3 360 358 347 340 330 323 326 331 333 330 322 315 312 308 305 307 308 291 280 283 274 245 246 240 230 242 242 267 260 269 264 251 254 255 248 233 208 208 206 200
201 206 199 196 234 214 242 205 223 202 217 211 152 233 142 2 172 169 163 158 153 148 146 138 135 134 131 132 123 126 116 98 92 93 100 104 93 85 84 74 65 58 44 55 55 51 46 33 29 23 14 16 24 7 350 359 357 3 350 351 340 335 341 347 348 341 333 328 324 321 318 316 314 303 304 293 286 288 285 280 273 257 260 248 273 277 258 254 255 259 264 250 244 240 222 211 204
193 212 208 197 197 204 201 217 197 230 213 203 196 180 83 44 156 168 154 150 146 148 140 136 133 135 133 131 123 114 104 102 115 111 107 101 99 95 79 69 67 59 51 51 47 60 52 43 50 19 23 21 16 3 0 356 355 20 359 353 355 350 346 338 337 335 327 328 328 325 325 321 314 310 303 301 292 290 289 286 273 260 253 243 227 250 252 238 248 265 272 273 249 253 242 225 210